map of DXB home
Great Circle Mapper logo
DXB - Airport
Location
City:  Dubai, United Arab Emirates
Name:Dubai International Airport
ICAO / IATA:OMDB / DXB

Details
Type:Airport (Aerodrome, Airfield)
Use:Public/Civil, International (customs port of entry)
Latitude:2515'10"N (25.252778)
Longitude:5521'52"E (55.364444)
Datum:WGS 1984
Elevation:62 ft (19 m)
Runways:2
Longest:13124 × 197 ft (4000 × 60 m), paved

Time
Time Zone:UTC+4
Local Time:

Weather
METAR:OMDB 241700Z 24005KT CAVOK 36/25 Q0996 NOSIG
TAF:OMDB 241656Z 2418/2524 16005KT CAVOK
BECMG 2507/2509 30013KT
BECMG 2515/2517 09005KT

Related Locations
Nearby:
Farthest:GMR: 11782 mi / 18962 km
Mangareva [Totegegie], Gambier Islands, PF

Find:

   beyond  
but within

Other Information
Maps:
NOTAMs:
Links:
Sources:

  
flag of United Arab Emirates   

Airport Diagram

Airport diagram for DXB

Airport diagram (OBSOLETE) from NGA

Sectional Chart

Flight Planning
at skyvector.com

Satellite Image

Google Maps Satellite View

 

Copyright © 2004-2014 Karl L. Swartz. All rights reserved.
The Great Circle Mapper name and logo are trademarks of the Great Circle Mapper.
All other trademarks mentioned herein belong to their respective owners.
Please see credits for attibutions and further copyright information.

  Follow gcmap on Facebook Follow gcmap on Twitter

hCard Microformat

Geo Microformat